This is the latest recevied weather packets stored in our database for station/object HB9DDE-10. If no packets are shown the sender has not sent any weather packets the latest 10 day(s).
| Time | Temp. | Humidity | Pressure | Rain* | Wind** | Luminosity | Snow |
|---|---|---|---|---|---|---|---|
| 1777886625 | 18.33° C | 58% | 1015.2 hPa | 0 mm | - | - | - |
| 1777886333 | 18.89° C | 59% | 1015.2 hPa | 0 mm | - | - | - |
| 1777886029 | 18.89° C | 60% | 1015.2 hPa | 0 mm | - | - | - |
| 1777885719 | 18.33° C | 58% | 1015.2 hPa | 0 mm | - | - | - |
| 1777885429 | 18.33° C | 57% | 1015.3 hPa | 0 mm | - | - | - |
| 1777885119 | 18.33° C | 62% | 1015.3 hPa | 0 mm | - | - | - |
| 1777884829 | 17.78° C | 61% | 1015.4 hPa | 0 mm | - | - | - |
| 1777884519 | 17.78° C | 62% | 1015.3 hPa | 0 mm | - | - | - |
| 1777884229 | 17.22° C | 61% | 1015.3 hPa | 0 mm | - | - | - |
| 1777883919 | 17.22° C | 62% | 1015.3 hPa | 0 mm | - | - | - |
| 1777883629 | 17.22° C | 62% | 1015.3 hPa | 0 mm | - | - | - |
| 1777883323 | 17.22° C | 62% | 1015.4 hPa | 0 mm | - | - | - |
| 1777883032 | 17.22° C | 66% | 1015.5 hPa | 0 mm | - | - | - |
| 1777882721 | 16.67° C | 66% | 1015.5 hPa | 0 mm | - | - | - |
| 1777882433 | 16.11° C | 71% | 1015.6 hPa | 0 mm | - | - | - |
| 1777882122 | 16.11° C | 70% | 1015.7 hPa | 0 mm | - | - | - |
| 1777881831 | 16.11° C | 70% | 1015.8 hPa | 0 mm | - | - | - |
| 1777881520 | 16.11° C | 73% | 1015.8 hPa | 0 mm | - | - | - |
| 1777881229 | 15.56° C | 72% | 1015.7 hPa | 0 mm | - | - | - |
| 1777880923 | 15.56° C | 74% | 1015.6 hPa | 0 mm | - | - | - |
| 1777880632 | 15° C | 75% | 1015.7 hPa | 0 mm | - | - | - |
| 1777880322 | 15° C | 76% | 1015.7 hPa | 0 mm | - | - | - |
| 1777880033 | 15° C | 77% | 1015.8 hPa | 0 mm | - | - | - |
| 1777879723 | 14.44° C | 77% | 1015.8 hPa | 0 mm | - | - | - |
| 1777879432 | 14.44° C | 78% | 1015.8 hPa | 0 mm | - | - | - |
* Rain latest hour (hover to see other rain measurements)
** Current wind speed in m/s (hover to see current wind gust speed)